When you browse on this site, cookies collect data to enhance your experience and personalize the content and advertising you see.
Visit our Privacy Policy to learn more. By continuing to use the site, you agree to this use of cookies and data.
  • In Czech Republic
  • List of Countries
  • For 7 days
  • Water Temperature
  • Satellite Maps
  • Weather Map
  • Weather Widgets
  • user-avatar
    Login

    Hourly Weather P'yadykivtsi

    Today, 16 January, Wednesday

    Time Temperature Precipitation Wind Pressure Humidity
    00:00 -4°C° 0 mm 1 mps 734 mmHg 84%
    01:00 -3°C° 0 mm 1 mps 734 mmHg 86%
    02:00 -5°C° 0 mm 3 mps 735 mmHg 89%
    03:00 -4°C° 0 mm 2 mps 734 mmHg 92%
    04:00 -4°C° 0 mm 2 mps 732 mmHg 91%
    05:00 -4°C° 0 mm 3 mps 732 mmHg 89%
    06:00 -3°C° 0.1 mm 4 mps 732 mmHg 92%
    07:00 -2°C° 0 mm 8 mps 732 mmHg 82%
    08:00 -3°C° 0 mm 9 mps 733 mmHg 83%
    09:00 -3°C° 0 mm 9 mps 733 mmHg 88%
    10:00 -2°C° 0 mm 10 mps 735 mmHg 92%
    11:00 -2°C° 0 mm 10 mps 736 mmHg 93%
    12:00 -1°C° 0 mm 9 mps 737 mmHg 96%
    13:00 -1°C° 0 mm 8 mps 737 mmHg 96%
    14:00 -2°C° 0 mm 6 mps 738 mmHg 97%
    15:00 -1°C° 0.1 mm 5 mps 739 mmHg 97%
    16:00 -2°C° 0 mm 4 mps 739 mmHg 97%
    17:00 -1°C° 0 mm 3 mps 740 mmHg 99%
    18:00 -3°C° 0 mm 2 mps 740 mmHg 100%
    19:00 -4°C° 0 mm 2 mps 740 mmHg 100%
    20:00 -1°C° 0 mm 1 mps 741 mmHg 100%
    21:00 -1°C° 0 mm 0 mps 741 mmHg 100%
    22:00 0°C° 0 mm 1 mps 741 mmHg 100%
    23:00 -2°C° 0 mm 2 mps 741 mmHg 100%

    Tomorrow, 17 January, Thursday

    Time Temperature Precipitation Wind Pressure Humidity
    00:00 -2°C° 0 mm 2 mps 741 mmHg 100%
    01:00 -3°C° 0 mm 2 mps 741 mmHg 100%
    02:00 -4°C° 0 mm 3 mps 741 mmHg 99%
    03:00 -4°C° 0 mm 3 mps 741 mmHg 98%
    04:00 -4°C° 0 mm 3 mps 740 mmHg 96%
    05:00 -5°C° 0 mm 3 mps 740 mmHg 93%
    06:00 -6°C° 0 mm 3 mps 740 mmHg 93%
    07:00 -5°C° 0 mm 3 mps 740 mmHg 93%
    08:00 -5°C° 0 mm 3 mps 740 mmHg 92%
    09:00 -5°C° 0 mm 3 mps 739 mmHg 91%
    10:00 -4°C° 0 mm 3 mps 739 mmHg 91%
    11:00 -1°C° 0 mm 3 mps 739 mmHg 91%
    12:00 0°C° 0 mm 3 mps 739 mmHg 92%
    13:00 +2°C° 0 mm 2 mps 738 mmHg 92%
    14:00 +3°C° 0 mm 2 mps 738 mmHg 88%
    15:00 +4°C° 0 mm 2 mps 738 mmHg 84%
    16:00 +3°C° 0 mm 3 mps 738 mmHg 84%
    17:00 +1°C° 0 mm 4 mps 738 mmHg 85%
    18:00 0°C° 0 mm 4 mps 738 mmHg 85%
    19:00 0°C° 0 mm 4 mps 738 mmHg 86%
    20:00 +1°C° 0 mm 3 mps 738 mmHg 85%
    21:00 +2°C° 0 mm 2 mps 738 mmHg 83%
    22:00 +3°C° 0 mm 1 mps 739 mmHg 80%
    23:00 +3°C° 0 mm 1 mps 739 mmHg 80%

    Day after tomorrow, 18 January, Friday

    Time Temperature Precipitation Wind Pressure Humidity
    00:00 +1°C° 0 mm 2 mps 739 mmHg 79%
    01:00 +1°C° 0 mm 2 mps 739 mmHg 78%
    02:00 +1°C° 0 mm 2 mps 739 mmHg 82%
    03:00 -2°C° 0 mm 3 mps 739 mmHg 89%
    04:00 -3°C° 0 mm 2 mps 738 mmHg 92%
    05:00 -4°C° 0 mm 3 mps 738 mmHg 94%
    06:00 -3°C° 0 mm 2 mps 738 mmHg 93%
    07:00 -3°C° 0 mm 2 mps 738 mmHg 95%
    08:00 -1°C° 0 mm 1 mps 739 mmHg 94%
    09:00 -1°C° 0 mm 0 mps 739 mmHg 91%
    10:00 +1°C° 0 mm 1 mps 740 mmHg 94%
    11:00 +3°C° 0 mm 1 mps 740 mmHg 92%
    12:00 +4°C° 0 mm 1 mps 740 mmHg 91%
    13:00 +4°C° 0 mm 1 mps 740 mmHg 91%
    14:00 -2°C° 0 mm 6 mps 742 mmHg 92%
    15:00 0°C° 0.1 mm 3 mps 742 mmHg 98%
    16:00 -1°C° 0.2 mm 2 mps 743 mmHg 100%
    17:00 -2°C° 0 mm 3 mps 744 mmHg 97%
    18:00 -5°C° 0 mm 3 mps 744 mmHg 93%
    19:00 -6°C° 0 mm 3 mps 745 mmHg 89%
    20:00 -7°C° 0 mm 3 mps 746 mmHg 87%
    21:00 -8°C° 0 mm 3 mps 746 mmHg 85%
    22:00 -9°C° 0 mm 3 mps 747 mmHg 85%
    23:00 -9°C° 0 mm 3 mps 747 mmHg 85%

    19 January, Saturday

    Time Temperature Precipitation Wind Pressure Humidity
    00:00 -11°C° 0 mm 4 mps 748 mmHg 87%
    01:00 -12°C° 0 mm 4 mps 748 mmHg 90%
    02:00 -12°C° 0 mm 3 mps 749 mmHg 91%
    03:00 -10°C° 0 mm 2 mps 749 mmHg 89%
    04:00 -10°C° 0 mm 2 mps 749 mmHg 87%
    05:00 -8°C° 0 mm 1 mps 749 mmHg 86%
    06:00 -8°C° 0 mm 1 mps 749 mmHg 87%
    07:00 -8°C° 0 mm 0 mps 750 mmHg 88%
    08:00 -8°C° 0 mm 0 mps 750 mmHg 90%
    09:00 -8°C° 0 mm 0 mps 750 mmHg 90%
    10:00 -8°C° 0 mm 1 mps 750 mmHg 91%
    11:00 -7°C° 0 mm 1 mps 750 mmHg 96%
    12:00 -7°C° 0 mm 2 mps 750 mmHg 98%
    13:00 -7°C° 0 mm 3 mps 749 mmHg 98%
    14:00 -5°C° 0 mm 4 mps 749 mmHg 96%
    15:00 -5°C° 0 mm 4 mps 749 mmHg 98%
    16:00 -7°C° 0 mm 4 mps 748 mmHg 100%
    17:00 -7°C° 0 mm 3 mps 748 mmHg 100%
    18:00 -8°C° 0 mm 4 mps 748 mmHg 100%
    19:00 -9°C° 0 mm 4 mps 748 mmHg 100%
    20:00 -9°C° 0 mm 4 mps 747 mmHg 100%
    21:00 -9°C° 0 mm 4 mps 747 mmHg 100%
    22:00 -10°C° 0 mm 4 mps 747 mmHg 100%
    23:00 -9°C° 0 mm 3 mps 747 mmHg 100%

    20 January, Sunday

    Time Temperature Precipitation Wind Pressure Humidity
    00:00 -10°C° 0.3 mm 4 mps 746 mmHg 100%
    01:00 -10°C° 0.6 mm 4 mps 746 mmHg 100%
    02:00 -9°C° 0.4 mm 3 mps 745 mmHg 100%

    21 January, Monday

    Time Temperature Precipitation Wind Pressure Humidity
    Show more